Location: Newark
(33.6439°N, 114.9881°W)
Time: 23:07:44
(UTC+00:00)

Tiros 1 - Pass Details

Date: 23 July 2019
Orbit: 631 x 664 km, 48.4° (Epoch: 25 August)

Event Time Altitude Azimuth Distance (km) Brightness Sun altitude
Rises 21:37:10 0° 302° (WNW) 2,993 10.8 61.9°
Reaches altitude 10° 21:40:44 10° 329° (NNW) 2,082 10.0 61.2°
Maximum altitude 21:43:06 13° 359° (N) 1,856 9.6 60.8°
Drops below altitude 10° 21:45:29 10° 28° (NNE) 2,081 9.7 60.3°
Sets 21:49:03 0° 55° (NE) 2,990 10.3 59.6°
